This is the latest recevied weather packets stored in our database for station/object SP1BMW-13. If no packets are shown the sender has not sent any weather packets the latest 10 day(s).
| Time | Temp. | Humidity | Pressure | Rain* | Wind** | Luminosity | Snow |
|---|---|---|---|---|---|---|---|
| 1777707205 | 21.11° C | 40% | 1021.8 hPa | 0 mm | 0.45 m/s, 39° | 390 W/m² | - |
| 1777707145 | 20.56° C | 38% | 1022 hPa | 0 mm | 0.45 m/s, 143° | 386 W/m² | - |
| 1777707085 | 20.56° C | 38% | 1022 hPa | 0 mm | 0.45 m/s, 51° | 384 W/m² | - |
| 1777707025 | 20.56° C | 39% | 1021.8 hPa | 0 mm | 0.45 m/s, 45° | 381 W/m² | - |
| 1777706965 | 20.56° C | 38% | 1022 hPa | 0 mm | 0.45 m/s, 59° | 379 W/m² | - |
| 1777706905 | 20.56° C | 37% | 1022 hPa | 0 mm | 0.89 m/s, 98° | 376 W/m² | - |
| 1777706848 | 20.56° C | 37% | 1021.9 hPa | 0 mm | 2.24 m/s, 98° | 372 W/m² | - |
| 1777706785 | 20.56° C | 38% | 1022 hPa | 0 mm | 0.89 m/s, 45° | 370 W/m² | - |
| 1777706726 | 20.56° C | 38% | 1022 hPa | 0 mm | 0.45 m/s, 37° | 370 W/m² | - |
| 1777706665 | 20.56° C | 38% | 1022.1 hPa | 0 mm | 0.89 m/s, 101° | 363 W/m² | - |
| 1777706605 | 20.56° C | 39% | 1021.9 hPa | 0 mm | 0.89 m/s, 75° | 362 W/m² | - |
| 1777706548 | 20.56° C | 39% | 1022 hPa | 0 mm | 0.45 m/s, 92° | 358 W/m² | - |
| 1777706485 | 20° C | 40% | 1021.9 hPa | 0 mm | 0.45 m/s, 42° | 357 W/m² | - |
| 1777706425 | 20° C | 39% | 1022 hPa | 0 mm | 0.45 m/s, 73° | 355 W/m² | - |
| 1777706365 | 20° C | 39% | 1022 hPa | 0 mm | 0.89 m/s, 59° | 352 W/m² | - |
| 1777706305 | 20° C | 40% | 1022.1 hPa | 0 mm | 1.79 m/s, 57° | 347 W/m² | - |
| 1777706245 | 20° C | 40% | 1022.2 hPa | 0 mm | 0.89 m/s, 78° | 344 W/m² | - |
| 1777706188 | 20° C | 41% | 1022.1 hPa | 0 mm | 0 m/s | 341 W/m² | - |
| 1777706125 | 19.44° C | 41% | 1021.9 hPa | 0 mm | 0.45 m/s, 30° | 339 W/m² | - |
| 1777706065 | 19.44° C | 41% | 1022 hPa | 0 mm | 1.34 m/s, 85° | 337 W/m² | - |
| 1777706005 | 19.44° C | 41% | 1022.1 hPa | 0 mm | 1.34 m/s, 55° | 333 W/m² | - |
| 1777705945 | 19.44° C | 42% | 1022 hPa | 0 mm | 0.45 m/s, 39° | 330 W/m² | - |
| 1777705885 | 19.44° C | 42% | 1022.2 hPa | 0 mm | 0.89 m/s, 33° | 326 W/m² | - |
| 1777705825 | 19.44° C | 43% | 1022 hPa | 0 mm | 0 m/s | 324 W/m² | - |
| 1777705765 | 19.44° C | 42% | 1022 hPa | 0 mm | 0.89 m/s, 67° | 321 W/m² | - |
* Rain latest hour (hover to see other rain measurements)
** Current wind speed in m/s (hover to see current wind gust speed)